Regional Weather Roundup
Issued by NWS Kansas City/Pleasant Hill, MO

Home | Current Version | Previous Version | Text Only | Print | Product List | Glossary On
Versions: 1 2 3 4 5 6 7 8 9 10 11 12 13 14 15 16 17 18 19 20 21 22 23 24 25 26 27
000
ASUS43 KEAX 171410
RWREAX

WEATHER ROUNDUP FOR EASTERN KANSAS AND NORTHWEST MISSOURI
NATIONAL WEATHER SERVICE KANSAS CITY/PLEASANT HILL MO
800 AM CST SUN DEC 17 2017

KSZ040-057-103>105-MOZ028-029-037-043-171500-
...KANSAS CITY METROPOLITAN AREA...

CITY           SKY/WX    TMP DP  RH WIND       PRES   REMARKS
K.C. INTL      LGT RAIN  42  41  96 S8        30.01R FOG
K.C. DOWNTOWN  LGT RAIN  45  42  89 S7        30.02R
LEES SUMMIT    LGT RAIN  43  43 100 S10       30.02S
OLATHE - IXD   LGT RAIN  42  42 100 S9        30.03R FOG
OLATHE - OJC   CLOUDY    41  41 100 S10       30.02R FOG     WCI  35
LAWRENCE       CLOUDY    43  43 100 S7        30.02R FOG

$$

MOZ001>008-011>017-020>025-030>033-038>040-044>046-053-054-171500-
...NORTHERN AND CENTRAL MISSOURI...

CITY           SKY/WX    TMP DP  RH WIND       PRES   REMARKS
ST. JOSEPH     LGT RAIN  41  41 100 S6        30.00S FOG
MOSBY          RAIN      43  41  93 S3        30.02R
WARRENSBURG    LGT RAIN  41  39  93 S6        30.05R
WHITEMAN AFB   LGT RAIN  41  41 100 SW7       30.01R
CLINTON        LGT RAIN  41  41 100 S5        30.06S
SEDALIA        LGT RAIN  43  43 100 SW8       30.07R
WARSAW         NOT AVBL
CHILLICOTHE      N/A     42  37  82 S3        30.04R
KIRKSVILLE     MOCLDY    44  31  60 SW7       30.02R

$$

MOZ041-047>049-056>058-063>065-088>090-097-171500-
...EASTERN AND SOUTHERN MISSOURI...

CITY           SKY/WX    TMP DP  RH WIND       PRES   REMARKS
ST. LOUIS INTL CLOUDY    45  33  63 SE5       30.06R
SPIRIT OF STL  CLOUDY    47  31  53 CALM      30.04S
COLUMBIA       LGT RAIN  42  37  82 SW8       30.08R
JEFFERSON CITY LGT RAIN  43  37  79 NW5       30.09R
ROLLA          LGT RAIN  43  37  79 W10       30.07R
OSAGE BEACH    LGT RAIN  42  41  96 CALM      30.07F
SPRINGFIELD    LGT RAIN  42  41  96 S5        30.06R FOG
BRANSON        FOG       41  41 100 S5        30.07R VSB 3/4
JOPLIN         CLOUDY    43  43 100 S5        30.06R FOG
WEST PLAINS    LGT RAIN  41  40  96 S5        30.08R FOG

$$

IAZ060-094-KSZ022-034>040-054-083-096-NEZ052-066-093-171500-
...KANSAS...SOUTHEAST NEBRASKA AND IOWA...

CITY           SKY/WX    TMP DP  RH WIND       PRES   REMARKS
TOPEKA         LGT RAIN  44  44 100 S8        30.02R FOG
MANHATTAN      CLOUDY    45  42  89 SW8       30.00R
EMPORIA        CLOUDY    42  41  96 S8        30.02R
CHANUTE        CLOUDY    43  43 100 S8        30.05R FOG
WICHITA        CLOUDY    44  42  93 S10       30.02R
OMAHA          CLOUDY    30  23  75 N15       29.99F WCI  19
LINCOLN        LGT SNOW  31  28  89 N8        30.02R FOG     WCI  23
FALLS CITY     CLOUDY    41  40  96 S7        29.98R
LAMONI         CLOUDY    42  31  64 SW14      30.00R WCI  35
DES MOINES     CLOUDY    32  25  75 CALM      30.00R

$$





USA.gov is the U.S. government's official web portal to all federal, state and local government web resources and services.